When you browse on this site, cookies collect data to enhance your experience and personalize the content and advertising you see.
Visit our Privacy Policy to learn more. By continuing to use the site, you agree to this use of cookies and data.

Météo par heure à Tysaahtelek

Ce jour, 2 Juillet, Jeudi

Heure Température Précipitation Vent Pression Humidité
00:00 +20°C° 0 mm 2 m/s 751 mmHg 86%
01:00 +21°C° 0 mm 1 m/s 750 mmHg 89%
02:00 +21°C° 0 mm 1 m/s 750 mmHg 89%
03:00 +20°C° 0 mm 1 m/s 750 mmHg 89%
04:00 +20°C° 0 mm 1 m/s 750 mmHg 90%
05:00 +22°C° 0 mm 1 m/s 750 mmHg 85%
06:00 +23°C° 0 mm 2 m/s 750 mmHg 80%
07:00 +25°C° 0 mm 2 m/s 750 mmHg 75%
08:00 +27°C° 0 mm 2 m/s 750 mmHg 72%
09:00 +28°C° 0 mm 3 m/s 750 mmHg 68%
10:00 +29°C° 0 mm 3 m/s 749 mmHg 65%
11:00 +29°C° 0.9 mm 3 m/s 749 mmHg 67%
12:00 +29°C° 0.9 mm 2 m/s 749 mmHg 70%
13:00 +29°C° 0.9 mm 2 m/s 749 mmHg 72%
14:00 +28°C° 1.9 mm 2 m/s 749 mmHg 76%
15:00 +27°C° 1.9 mm 2 m/s 749 mmHg 80%
16:00 +26°C° 1.9 mm 2 m/s 749 mmHg 83%
17:00 +25°C° 0.9 mm 2 m/s 749 mmHg 86%
18:00 +24°C° 0.9 mm 2 m/s 748 mmHg 88%
19:00 +23°C° 0.9 mm 1 m/s 748 mmHg 91%
20:00 +23°C° 0.8 mm 1 m/s 748 mmHg 92%
21:00 +22°C° 0.8 mm 1 m/s 749 mmHg 92%
22:00 +22°C° 0.8 mm 1 m/s 749 mmHg 93%
23:00 +21°C° 0.3 mm 1 m/s 749 mmHg 93%

Demain, 3 Juillet, Vendredi

Heure Température Précipitation Vent Pression Humidité
00:00 +21°C° 0.3 mm 1 m/s 748 mmHg 92%
01:00 +21°C° 0.3 mm 1 m/s 748 mmHg 92%
02:00 +21°C° 0.5 mm 1 m/s 748 mmHg 92%
03:00 +20°C° 0.5 mm 1 m/s 748 mmHg 92%
04:00 +20°C° 0.5 mm 1 m/s 748 mmHg 92%
05:00 +21°C° 0.7 mm 1 m/s 748 mmHg 90%
06:00 +22°C° 0.7 mm 1 m/s 748 mmHg 89%
07:00 +23°C° 0.7 mm 1 m/s 748 mmHg 87%
08:00 +24°C° 0.5 mm 1 m/s 749 mmHg 86%
09:00 +24°C° 0.5 mm 2 m/s 749 mmHg 85%
10:00 +24°C° 0.5 mm 2 m/s 749 mmHg 85%
11:00 +25°C° 0.3 mm 2 m/s 749 mmHg 83%
12:00 +25°C° 0.3 mm 1 m/s 749 mmHg 81%
13:00 +26°C° 0.3 mm 1 m/s 749 mmHg 79%
14:00 +26°C° 0.7 mm 2 m/s 749 mmHg 80%
15:00 +26°C° 0.7 mm 3 m/s 749 mmHg 81%
16:00 +26°C° 0.7 mm 4 m/s 749 mmHg 82%
17:00 +25°C° 0.3 mm 4 m/s 750 mmHg 83%
18:00 +23°C° 0.3 mm 4 m/s 750 mmHg 84%
19:00 +22°C° 0.3 mm 4 m/s 750 mmHg 85%
20:00 +21°C° 0.1 mm 4 m/s 751 mmHg 86%
21:00 +21°C° 0.1 mm 4 m/s 751 mmHg 86%
22:00 +20°C° 0.1 mm 4 m/s 752 mmHg 87%
23:00 +19°C° 0 mm 4 m/s 752 mmHg 88%

Après-demain, 4 Juillet, Samedi

Heure Température Précipitation Vent Pression Humidité
00:00 +19°C° 0 mm 4 m/s 752 mmHg 88%
01:00 +19°C° 0 mm 4 m/s 752 mmHg 89%
02:00 +18°C° 0 mm 4 m/s 752 mmHg 89%
03:00 +18°C° 0 mm 4 m/s 752 mmHg 90%
04:00 +18°C° 0 mm 4 m/s 752 mmHg 90%
05:00 +19°C° 0 mm 4 m/s 752 mmHg 86%
06:00 +20°C° 0 mm 4 m/s 753 mmHg 82%
07:00 +22°C° 0 mm 4 m/s 753 mmHg 78%
08:00 +23°C° 0 mm 4 m/s 753 mmHg 74%
09:00 +25°C° 0 mm 4 m/s 753 mmHg 69%
10:00 +26°C° 0 mm 4 m/s 753 mmHg 65%
11:00 +27°C° 0 mm 4 m/s 753 mmHg 63%
12:00 +28°C° 0 mm 4 m/s 752 mmHg 61%
13:00 +29°C° 0 mm 4 m/s 752 mmHg 59%
14:00 +28°C° 0.1 mm 4 m/s 752 mmHg 61%
15:00 +28°C° 0.1 mm 4 m/s 752 mmHg 63%
16:00 +28°C° 0.1 mm 5 m/s 752 mmHg 65%
17:00 +26°C° 0.1 mm 4 m/s 752 mmHg 70%
18:00 +25°C° 0.1 mm 4 m/s 752 mmHg 75%
19:00 +22°C° 0.1 mm 4 m/s 752 mmHg 80%
20:00 +21°C° 0 mm 4 m/s 752 mmHg 81%
21:00 +20°C° 0 mm 3 m/s 752 mmHg 82%
22:00 +19°C° 0 mm 3 m/s 753 mmHg 83%
23:00 +19°C° 0.1 mm 3 m/s 752 mmHg 84%

5 Juillet, Dimanche

Heure Température Précipitation Vent Pression Humidité
00:00 +18°C° 0.1 mm 3 m/s 752 mmHg 85%
01:00 +18°C° 0.1 mm 3 m/s 752 mmHg 86%
02:00 +18°C° 0 mm 3 m/s 752 mmHg 87%
03:00 +18°C° 0 mm 2 m/s 752 mmHg 88%
04:00 +17°C° 0 mm 2 m/s 752 mmHg 89%
05:00 +19°C° 0 mm 2 m/s 752 mmHg 86%
06:00 +20°C° 0 mm 2 m/s 752 mmHg 82%
07:00 +23°C° 0 mm 2 m/s 752 mmHg 79%
08:00 +24°C° 0 mm 2 m/s 752 mmHg 75%
09:00 +26°C° 0 mm 2 m/s 752 mmHg 71%
10:00 +27°C° 0 mm 2 m/s 752 mmHg 66%
11:00 +28°C° 0.3 mm 2 m/s 752 mmHg 65%
12:00 +28°C° 0.3 mm 2 m/s 751 mmHg 64%
13:00 +29°C° 0.3 mm 2 m/s 751 mmHg 63%
14:00 +29°C° 0.1 mm 2 m/s 751 mmHg 63%
15:00 +29°C° 0.1 mm 2 m/s 751 mmHg 63%
16:00 +29°C° 0.1 mm 2 m/s 751 mmHg 63%
17:00 +28°C° 0 mm 2 m/s 751 mmHg 68%
18:00 +26°C° 0 mm 2 m/s 751 mmHg 73%
19:00 +25°C° 0 mm 2 m/s 751 mmHg 78%
20:00 +23°C° 0 mm 2 m/s 751 mmHg 80%
21:00 +21°C° 0 mm 2 m/s 751 mmHg 82%
22:00 +20°C° 0 mm 2 m/s 751 mmHg 85%
23:00 +20°C° 0 mm 2 m/s 751 mmHg 85%

6 Juillet, Lundi

Heure Température Précipitation Vent Pression Humidité
00:00 +19°C° 0 mm 2 m/s 751 mmHg 86%
01:00 +19°C° 0 mm 2 m/s 751 mmHg 86%
02:00 +19°C° 0 mm 1 m/s 751 mmHg 87%
03:00 +19°C° 0 mm 1 m/s 751 mmHg 87%
04:00 +19°C° 0 mm 1 m/s 751 mmHg 88%
05:00 +21°C° 0 mm 1 m/s 751 mmHg 83%
06:00 +22°C° 0 mm 1 m/s 751 mmHg 79%
07:00 +24°C° 0 mm 1 m/s 751 mmHg 75%
08:00 +26°C° 0 mm 1 m/s 751 mmHg 71%
09:00 +27°C° 0 mm 1 m/s 751 mmHg 66%
10:00 +29°C° 0 mm 1 m/s 751 mmHg 62%
11:00 +29°C° 0 mm 1 m/s 750 mmHg 59%
12:00 +30°C° 0 mm 1 m/s 750 mmHg 56%
13:00 +30°C° 0 mm 1 m/s 749 mmHg 54%
14:00 +30°C° 0 mm 1 m/s 749 mmHg 55%
15:00 +30°C° 0 mm 2 m/s 749 mmHg 56%
16:00 +30°C° 0 mm 2 m/s 749 mmHg 58%
17:00 +29°C° 0 mm 2 m/s 749 mmHg 64%
18:00 +27°C° 0 mm 1 m/s 749 mmHg 70%
19:00 +25°C° 0 mm 1 m/s 749 mmHg 76%
20:00 +25°C° 0 mm 1 m/s 749 mmHg 77%
21:00 +24°C° 0 mm 1 m/s 749 mmHg 78%
22:00 +23°C° 0 mm 1 m/s 749 mmHg 79%
23:00 +23°C° 0.2 mm 1 m/s 749 mmHg 82%

7 Juillet, Mardi

Heure Température Précipitation Vent Pression Humidité
00:00 +22°C° 0.2 mm 1 m/s 749 mmHg 84%
01:00 +22°C° 0.2 mm 1 m/s 749 mmHg 86%
02:00 +21°C° 0.2 mm 2 m/s 749 mmHg 87%
03:00 +20°C° 0.2 mm 3 m/s 749 mmHg 89%
04:00 +20°C° 0.2 mm 3 m/s 749 mmHg 91%
05:00 +21°C° 0.4 mm 4 m/s 749 mmHg 89%
06:00 +21°C° 0.4 mm 5 m/s 750 mmHg 87%
07:00 +21°C° 0.4 mm 6 m/s 750 mmHg 85%
08:00 +21°C° 0.2 mm 6 m/s 750 mmHg 82%
09:00 +21°C° 0.2 mm 7 m/s 750 mmHg 78%
10:00 +21°C° 0.2 mm 7 m/s 751 mmHg 75%
11:00 +22°C° 0 mm 7 m/s 751 mmHg 71%
12:00 +22°C° 0 mm 8 m/s 751 mmHg 68%
13:00 +22°C° 0 mm 8 m/s 751 mmHg 65%
14:00 +22°C° 0 mm 8 m/s 751 mmHg 67%
15:00 +21°C° 0 mm 8 m/s 751 mmHg 68%
16:00 +20°C° 0 mm 8 m/s 751 mmHg 70%
17:00 +18°C° 0.1 mm 8 m/s 751 mmHg 72%
18:00 +17°C° 0.1 mm 7 m/s 752 mmHg 75%
19:00 +15°C° 0.1 mm 7 m/s 752 mmHg 77%
20:00 +15°C° 0.5 mm 7 m/s 752 mmHg 81%
21:00 +14°C° 0.5 mm 7 m/s 752 mmHg 84%
22:00 +14°C° 0.6 mm 6 m/s 753 mmHg 88%
23:00 +13°C° 1.2 mm 6 m/s 753 mmHg 89%
Voir plus